Content
SEND FEEDBACK

Daily
Averages
Monthly
Summary
United States of America

PARKERSBURG, WEST VIRGINIA


Home > North America > United States > West Virginia
Elevation: 659 feet     Latitude: 39 16N     Longitude: 081 34W

WEATHER
 
SELECT A DAY
Number of Records: 206,320;   Date Range: 1/1/95 - 7/23/14
 
SHARE

PRINT THIS DATA

[ ← Previous Day ]
WEATHER ALMANAC - FEBRUARY 21, 2014
[ Next Day → ]
[ °C ]   °F
Weather ElementAverageHighLow
Temperature47.1 °F63 °F (1:53 am)37 °F (7:46 am)
Dewpoint35.7 °F53.1 °F (2:53 am)18 °F (11:53 pm)
Humidity68.7 %93 % (4:45 am)35 % (3:53 pm)
Barometer29.81 in30.06 in (11:53 pm)29.57 in (1:53 am)
Wind Speed12.6 mph24.2 mph (4:45 am)
Wind Gust38 mph (2:27 am)
Weather ElementAverage
Visibility7.9 mi
Wind DirectionWSW (241.3 °)

Weather ElementTotal
Precipitation1.27 in
Heating Degree Days15 (Base 65)
Averaged from 32 records on February 21, 2014
WEATHER CONDITIONS BREAKOUT
WIND DIRECTION BREAKOUT
WEATHER BY HOUR - FEBRUARY 21, 2014
[ °C ]   °F
Local TimeTemperatureDewpointHumidityBarometerVisibilityWind DirectionWind SpeedGust SpeedPrecipitationEventsConditions
1:53 AM63.0 °F48.0 °F58 %29.57 in10.0 miSSE (160°)12.7 mph25.3 mphScattered Clouds
2:27 AM60.1 °F50.0 °F69 %29.66 in4.0 miWest (270°)19.6 mph38.0 mph0.05 inRainHeavy Rain
2:53 AM57.9 °F53.1 °F84 %29.67 in6.0 miSSW (210°)13.8 mph21.9 mph0.12 inRainRain
3:53 AM55.9 °F53.1 °F90 %29.64 in8.0 miSSW (200°)9.2 mph0.10 inRainLight Rain
4:11 AM55.9 °F53.1 °F90 %29.64 in9.0 miSouth (170°)10.4 mph0.01 inRainLight Rain
4:45 AM53.1 °F51.1 °F93 %29.67 in3.0 miWNW (290°)24.2 mph35.7 mph0.12 inRainRain
4:49 AM51.8 °F48.2 °F88 %29.68 in4.0 miWest (280°)18.4 mph35.7 mph0.13 inRainRain
4:53 AM51.1 °F48.0 °F89 %29.67 in5.0 miWest (280°)15.0 mph31.1 mph0.14 inRainLight Rain
5:14 AM48.9 °F46.9 °F93 %29.67 in6.0 miWest (280°)8.1 mph0.03 inRainRain
5:28 AM48.9 °F46.9 °F93 %29.68 in4.0 miWest (280°)10.4 mph0.06 inRainRain
5:46 AM48.9 °F46.9 °F93 %29.71 in4.0 miWest (260°)10.4 mph18.4 mph0.11 inRainRain
5:53 AM48.9 °F46.9 °F93 %29.70 in3.0 miWest (270°)10.4 mph0.13 inRainRain
6:53 AM39.9 °F37.0 °F89 %29.79 in4.0 miWNW (290°)19.6 mph32.2 mph0.21 inRainRain
7:46 AM37.0 °F35.1 °F93 %29.84 in7.0 miWest (270°)9.2 mph23.0 mph0.03 inRainLight Rain
7:53 AM37.0 °F35.1 °F93 %29.85 in6.0 miWest (280°)9.2 mph0.03 inRainLight Rain
8:53 AM37.9 °F35.1 °F89 %29.86 in10.0 miSouth (190°)8.1 mph0.00 inOvercast
9:00 AM37.9 °F35.1 °F89 %29.86 in10.0 miSSW (200°)8.1 mphOvercast
9:53 AM39.9 °F35.1 °F83 %29.87 in10.0 miSSW (200°)12.7 mph20.7 mphOvercast
10:53 AM43.0 °F34.0 °F71 %29.87 in10.0 miSSW (200°)16.1 mph23.0 mphPartly Cloudy
11:53 AM44.1 °F33.1 °F65 %29.86 in10.0 miWSW (240°)20.7 mph29.9 mphOvercast
12:53 PM46.9 °F30.9 °F54 %29.83 in10.0 miWSW (250°)16.1 mph29.9 mphMostly Cloudy
1:53 PM48.0 °F30.0 °F50 %29.83 in10.0 miWSW (250°)13.8 mph29.9 mphScattered Clouds
2:53 PM50.0 °F25.0 °F38 %29.84 in10.0 miWSW (250°)18.4 mph34.5 mphMostly Cloudy
3:53 PM50.0 °F23.0 °F35 %29.86 in10.0 miWSW (240°)17.3 mph35.7 mphPartly Cloudy
4:53 PM48.9 °F21.9 °F35 %29.90 in10.0 miWest (260°)12.7 mph23.0 mphClear
5:53 PM46.9 °F21.9 °F37 %29.93 in10.0 miWSW (250°)10.4 mph23.0 mphClear
6:53 PM46.0 °F21.9 °F39 %29.96 in10.0 miWSW (240°)12.7 mph18.4 mphClear
7:53 PM45.0 °F21.0 °F39 %29.99 in10.0 miSW (230°)10.4 mphClear
8:53 PM44.1 °F19.9 °F38 %30.01 in10.0 miWSW (250°)6.9 mph16.1 mphClear
9:53 PM42.1 °F19.0 °F40 %30.04 in10.0 miWest (270°)6.9 mphClear
10:53 PM39.9 °F19.0 °F43 %30.04 in10.0 miSSW (200°)4.6 mphClear
11:53 PM37.0 °F18.0 °F46 %30.06 in10.0 miSSW (210°)5.8 mphClear
Hourly data recorded from KPKB, located miles away from Parkersburg, West Virginia







STORIES FROM OUR PARTNERS